When you browse on this site, cookies collect data to enhance your experience and personalize the content and advertising you see.
Visit our Privacy Policy to learn more. By continuing to use the site, you agree to this use of cookies and data.
  • In Spain
  • List of Countries
  • For 7 days
  • Water Temperature
  • Satellite Maps
  • Weather Map
  • Weather Widgets
  • user-avatar
    Login

    Hourly Weather Klagenfurt

    Today, 18 July, Thursday

    Time Temperature Precipitation Wind Pressure Humidity
    00:00 +15°C° 0.7 mm 1 mps 688 mmHg 94%
    01:00 +14°C° 0 mm 1 mps 688 mmHg 95%
    02:00 +14°C° 0.2 mm 1 mps 687 mmHg 95%
    03:00 +13°C° 0.2 mm 1 mps 687 mmHg 94%
    04:00 +13°C° 0.2 mm 1 mps 687 mmHg 94%
    05:00 +14°C° 0.1 mm 1 mps 687 mmHg 92%
    06:00 +14°C° 0.1 mm 0 mps 688 mmHg 91%
    07:00 +15°C° 0.1 mm 0 mps 688 mmHg 90%
    08:00 +17°C° 0.3 mm 0 mps 688 mmHg 84%
    09:00 +18°C° 0.3 mm 0 mps 689 mmHg 79%
    10:00 +20°C° 0.3 mm 0 mps 689 mmHg 74%
    11:00 +22°C° 0.5 mm 1 mps 689 mmHg 72%
    12:00 +22°C° 0.5 mm 1 mps 689 mmHg 70%
    13:00 +22°C° 0.5 mm 1 mps 689 mmHg 68%
    14:00 +22°C° 0.3 mm 1 mps 689 mmHg 65%
    15:00 +23°C° 0.3 mm 1 mps 689 mmHg 62%
    16:00 +23°C° 0.3 mm 1 mps 690 mmHg 60%
    17:00 +21°C° 0.4 mm 1 mps 689 mmHg 69%
    18:00 +20°C° 0.4 mm 1 mps 689 mmHg 78%
    19:00 +16°C° 0.4 mm 0 mps 689 mmHg 87%
    20:00 +15°C° 0.2 mm 0 mps 689 mmHg 88%
    21:00 +14°C° 0.2 mm 0 mps 689 mmHg 88%
    22:00 +14°C° 0.2 mm 0 mps 690 mmHg 89%
    23:00 +13°C° 0.2 mm 0 mps 689 mmHg 90%

    Tomorrow, 19 July, Friday

    Time Temperature Precipitation Wind Pressure Humidity
    00:00 +13°C° 0.2 mm 0 mps 689 mmHg 90%
    01:00 +12°C° 0.2 mm 0 mps 689 mmHg 91%
    02:00 +13°C° 0 mm 1 mps 689 mmHg 91%
    03:00 +13°C° 0 mm 1 mps 689 mmHg 91%
    04:00 +13°C° 0 mm 1 mps 690 mmHg 91%
    05:00 +14°C° 0 mm 1 mps 690 mmHg 90%
    06:00 +15°C° 0 mm 1 mps 690 mmHg 88%
    07:00 +15°C° 0 mm 0 mps 691 mmHg 86%
    08:00 +19°C° 0.3 mm 1 mps 691 mmHg 79%
    09:00 +21°C° 0.3 mm 1 mps 692 mmHg 72%
    10:00 +23°C° 0.3 mm 1 mps 692 mmHg 65%
    11:00 +24°C° 0.6 mm 1 mps 692 mmHg 62%
    12:00 +25°C° 0.6 mm 1 mps 692 mmHg 59%
    13:00 +26°C° 0.6 mm 1 mps 692 mmHg 56%
    14:00 +25°C° 0.3 mm 1 mps 692 mmHg 56%
    15:00 +25°C° 0.3 mm 1 mps 692 mmHg 56%
    16:00 +25°C° 0.3 mm 1 mps 692 mmHg 56%
    17:00 +23°C° 0.1 mm 1 mps 692 mmHg 64%
    18:00 +22°C° 0.1 mm 1 mps 691 mmHg 71%
    19:00 +20°C° 0.1 mm 1 mps 691 mmHg 79%
    20:00 +19°C° 0 mm 1 mps 691 mmHg 81%
    21:00 +18°C° 0 mm 1 mps 691 mmHg 83%
    22:00 +16°C° 0 mm 1 mps 691 mmHg 84%
    23:00 +15°C° 0 mm 1 mps 691 mmHg 84%

    Day after tomorrow, 20 July, Saturday

    Time Temperature Precipitation Wind Pressure Humidity
    00:00 +15°C° 0 mm 1 mps 691 mmHg 83%
    01:00 +14°C° 0 mm 1 mps 691 mmHg 82%
    02:00 +14°C° 0 mm 1 mps 691 mmHg 83%
    03:00 +14°C° 0 mm 1 mps 691 mmHg 83%
    04:00 +12°C° 0 mm 0 mps 691 mmHg 84%
    05:00 +14°C° 0 mm 0 mps 691 mmHg 80%
    06:00 +16°C° 0 mm 0 mps 692 mmHg 76%
    07:00 +18°C° 0 mm 0 mps 692 mmHg 73%
    08:00 +20°C° 0 mm 0 mps 693 mmHg 65%
    09:00 +22°C° 0 mm 0 mps 693 mmHg 57%
    10:00 +26°C° 0 mm 1 mps 694 mmHg 49%
    11:00 +27°C° 0 mm 1 mps 694 mmHg 47%
    12:00 +28°C° 0 mm 1 mps 694 mmHg 45%
    13:00 +29°C° 0 mm 2 mps 694 mmHg 43%
    14:00 +28°C° 0 mm 2 mps 694 mmHg 45%
    15:00 +28°C° 0 mm 2 mps 693 mmHg 47%
    16:00 +27°C° 0 mm 2 mps 693 mmHg 49%
    17:00 +26°C° 0 mm 2 mps 693 mmHg 60%
    18:00 +24°C° 0 mm 2 mps 693 mmHg 70%
    19:00 +22°C° 0 mm 1 mps 693 mmHg 81%
    20:00 +21°C° 0 mm 1 mps 693 mmHg 83%
    21:00 +20°C° 0 mm 1 mps 693 mmHg 85%
    22:00 +19°C° 0 mm 1 mps 693 mmHg 87%
    23:00 +18°C° 0 mm 1 mps 693 mmHg 87%

    21 July, Sunday

    Time Temperature Precipitation Wind Pressure Humidity
    00:00 +18°C° 0 mm 1 mps 693 mmHg 87%
    01:00 +16°C° 0 mm 1 mps 693 mmHg 86%
    02:00 +16°C° 0 mm 1 mps 693 mmHg 86%
    03:00 +16°C° 0 mm 1 mps 693 mmHg 85%
    04:00 +16°C° 0 mm 1 mps 693 mmHg 85%
    05:00 +18°C° 0 mm 1 mps 693 mmHg 81%
    06:00 +18°C° 0 mm 0 mps 694 mmHg 77%
    07:00 +19°C° 0 mm 0 mps 694 mmHg 73%
    08:00 +22°C° 0 mm 0 mps 695 mmHg 66%
    09:00 +24°C° 0 mm 0 mps 695 mmHg 59%
    10:00 +29°C° 0 mm 1 mps 696 mmHg 52%
    11:00 +29°C° 0 mm 1 mps 696 mmHg 49%
    12:00 +30°C° 0 mm 1 mps 696 mmHg 45%
    13:00 +31°C° 0 mm 1 mps 696 mmHg 42%
    14:00 +30°C° 0.1 mm 1 mps 696 mmHg 45%
    15:00 +30°C° 0.1 mm 1 mps 696 mmHg 48%
    16:00 +29°C° 0.1 mm 2 mps 696 mmHg 50%
    17:00 +27°C° 0.5 mm 1 mps 696 mmHg 62%
    18:00 +25°C° 0.5 mm 1 mps 695 mmHg 75%
    19:00 +23°C° 0.5 mm 1 mps 695 mmHg 87%
    20:00 +21°C° 1 mm 1 mps 695 mmHg 90%
    21:00 +20°C° 1 mm 1 mps 695 mmHg 93%
    22:00 +19°C° 1 mm 1 mps 696 mmHg 96%
    23:00 +19°C° 0 mm 1 mps 695 mmHg 95%

    22 July, Monday

    Time Temperature Precipitation Wind Pressure Humidity
    00:00 +18°C° 0 mm 1 mps 695 mmHg 95%
    01:00 +18°C° 0 mm 1 mps 695 mmHg 95%
    02:00 +18°C° 0 mm 1 mps 695 mmHg 94%
    03:00 +18°C° 0 mm 1 mps 695 mmHg 94%
    04:00 +16°C° 0 mm 1 mps 695 mmHg 94%
    05:00 +18°C° 0 mm 1 mps 695 mmHg 92%
    06:00 +18°C° 0 mm 0 mps 696 mmHg 91%
    07:00 +19°C° 0 mm 0 mps 696 mmHg 89%
    08:00 +23°C° 0.2 mm 1 mps 696 mmHg 81%
    09:00 +24°C° 0.2 mm 1 mps 697 mmHg 73%
    10:00 +26°C° 0.2 mm 1 mps 697 mmHg 64%
    11:00 +27°C° 0.3 mm 1 mps 697 mmHg 62%
    12:00 +28°C° 0.3 mm 1 mps 697 mmHg 60%
    13:00 +29°C° 0.3 mm 1 mps 697 mmHg 58%
    14:00 +29°C° 0.2 mm 1 mps 696 mmHg 56%
    15:00 +29°C° 0.2 mm 1 mps 696 mmHg 54%
    16:00 +29°C° 0.2 mm 1 mps 696 mmHg 52%
    17:00 +27°C° 0.5 mm 1 mps 696 mmHg 63%
    18:00 +25°C° 0.5 mm 1 mps 695 mmHg 74%
    19:00 +21°C° 0.5 mm 0 mps 695 mmHg 85%
    20:00 +20°C° 0.1 mm 0 mps 695 mmHg 86%
    21:00 +21°C° 0.1 mm 1 mps 695 mmHg 87%
    22:00 +20°C° 0.1 mm 1 mps 695 mmHg 88%
    23:00 +17°C° 0 mm 0 mps 695 mmHg 89%

    23 July, Tuesday

    Time Temperature Precipitation Wind Pressure Humidity
    00:00 +17°C° 0 mm 0 mps 695 mmHg 90%
    01:00 +17°C° 0 mm 0 mps 695 mmHg 90%
    02:00 +16°C° 0 mm 0 mps 694 mmHg 91%
    03:00 +18°C° 0 mm 1 mps 694 mmHg 92%
    04:00 +18°C° 0 mm 1 mps 694 mmHg 93%
    05:00 +19°C° 0 mm 1 mps 694 mmHg 92%
    06:00 +20°C° 0 mm 1 mps 695 mmHg 90%
    07:00 +19°C° 0 mm 0 mps 695 mmHg 89%
    08:00 +23°C° 0 mm 1 mps 695 mmHg 81%
    09:00 +24°C° 0 mm 1 mps 695 mmHg 73%
    10:00 +26°C° 0 mm 1 mps 695 mmHg 65%
    11:00 +27°C° 0.1 mm 1 mps 695 mmHg 60%
    12:00 +28°C° 0.1 mm 1 mps 695 mmHg 56%
    13:00 +29°C° 0.1 mm 1 mps 695 mmHg 51%
    14:00 +28°C° 0.2 mm 1 mps 695 mmHg 53%
    15:00 +28°C° 0.2 mm 1 mps 694 mmHg 55%
    16:00 +28°C° 0.2 mm 1 mps 694 mmHg 58%
    17:00 +26°C° 0.1 mm 1 mps 694 mmHg 66%
    18:00 +24°C° 0.1 mm 1 mps 694 mmHg 74%
    19:00 +23°C° 0.1 mm 1 mps 693 mmHg 82%
    20:00 +22°C° 0 mm 1 mps 693 mmHg 84%
    21:00 +20°C° 0 mm 1 mps 693 mmHg 86%
    22:00 +19°C° 0 mm 1 mps 693 mmHg 88%
    23:00 +19°C° 0 mm 1 mps 693 mmHg 87%
    Show more